This demonstration page uses our WeatherBlox Daily Observations layout. Learn more.

Hourly Observations for July 7, 2017

Temp ( °F °C ) Dew Point ( °F °C ) Humidity (%) Winds ( mph kmh ) Pressure ( in mb ) Visibility ( mi km ) Precip ( " mm )
12:54 am 00:54 Clear 76 24.4 73 22.8 91 91 N 6 9 29.96 1015 10 16.0934 0 0
1:54 am 01:54 Clear 77 25 71 21.7 82 82 Calm 29.96 1015 10 16.0934 0 0
2:54 am 02:54 Clear 77 25 67 19.4 71 71 ENE 6 9 29.98 1015 10 16.0934 0 0
3:54 am 03:54 Clear 74 23.3 67 19.4 79 79 N 7 11 30 1016 10 16.0934 0 0
4:54 am 04:54 Clear 74 23.3 67 19.4 79 79 NNE 16 26 30.01 1016 10 16.0934 0 0
5:54 am 05:54 Clear 71 21.7 64 17.8 79 79 N 14 22 30.03 1017 10 16.0934 0 0
6:54 am 06:54 Sunny 70 21.1 59 15 68 68 N 14 22 30.05 1018 10 16.0934 0 0
7:54 am 07:54 Sunny 71 21.7 58 14.4 63 63 N 12 19 30.07 1018 10 16.0934 0 0
8:54 am 08:54 Sunny 73 22.8 58 14.4 59 59 N 12 19 30.1 1019 10 16.0934 0 0
9:54 am 09:54 Sunny 77 25 58 14.4 52 52 NNE 20 31 30.09 1019 10 16.0934 0 0
10:54 am 10:54 Sunny 79 26.1 58 14.4 49 49 NNE 18 30 30.08 1019 10 16.0934 0 0
11:54 am 11:54 Sunny 80 26.7 58 14.4 47 47 NNE 13 20 30.11 1020 10 16.0934 0 0
12:54 pm 12:54 Sunny 78 25.6 56 13.3 47 47 N 14 22 30.14 1021 10 16.0934 0 0
1:54 pm 13:54 Mostly Cloudy 76 24.4 59 15 56 56 NE 8 13 30.11 1020 10 16.0934 0 0
2:54 pm 14:54 Mostly Cloudy 75 23.9 59 15 58 58 N 7 11 30.13 1020 10 16.0934 0 0
3:54 pm 15:54 Sunny 78 25.6 59 15 52 52 NNW 7 11 30.11 1020 10 16.0934 0 0
4:54 pm 16:54 Sunny 81 27.2 61 16.1 51 51 NNW 3 6 30.09 1019 10 16.0934 0 0
5:54 pm 17:54 Sunny 81 27.2 58 14.4 45 45 NNE 9 15 30.08 1019 10 16.0934 0 0
6:54 pm 18:54 Sunny 82 27.8 59 15 46 46 N 5 7 30.08 1019 10 16.0934 0 0
7:54 pm 19:54 Sunny 78 25.6 62 16.7 58 58 NE 7 11 30.07 1018 10 16.0934 0 0
8:54 pm 20:54 Sunny 75 23.9 61 16.1 62 62 NE 5 7 30.07 1018 10 16.0934 0 0
9:54 pm 21:54 Clear 73 22.8 61 16.1 66 66 Calm 30.07 1018 10 16.0934 0 0
10:54 pm 22:54 Clear 66 18.9 62 16.7 87 87 Calm 30.08 1019 10 16.0934 0 0
11:54 pm 23:54 Clear 64 17.8 61 16.1 90 90 N 3 6 30.07 1018 10 16.0934 0 0

Powered by AerisWeather